GFSMW_700_rhum_078.txt.gz
RH
100 100 99 100 97 97 94 97 100 92 92 78 76 85 81 92 96 75 85 82 78 75 60 69 78 69 62 64 56 51 44 46 44 42 45 40 35 39 39 39 44 54 54
99 95 100 100 89 99 95 98 99 98 99 94 82 85 88 88 86 84 87 88 89 99 87 84 93 80 79 66 59 54 48 49 49 48 50 44 42 42 42 44 50 57 62
98 100 100 100 99 99 100 99 100 91 83 92 94 97 88 76 73 79 82 84 90 85 95 90 96 98 99 98 92 75 67 63 69 71 58 49 47 45 47 52 54 58 62
100 100 100 100 98 94 90 96 94 91 99 99 96 96 97 96 96 98 89 94 89 86 84 90 94 100 100 99 100 98 88 85 87 83 80 63 62 69 79 62 63 56 66
100 99 99 100 90 92 97 93 88 95 90 72 88 90 98 99 100 98 97 100 100 94 98 100 98 99 100 99 99 99 93 92 92 91 93 94 86 74 82 82 70 67 70
98 99 100 98 97 86 80 75 76 80 82 87 93 95 97 99 90 99 94 99 98 98 98 100 98 97 98 98 97 99 100 100 99 100 100 100 100 98 94 71 79 77 73
100 100 99 90 76 68 64 69 68 71 79 76 77 80 82 87 90 88 81 83 82 82 81 88 97 97 100 97 97 98 100 100 99 99 100 100 99 88 83 87 80 74 70
100 97 96 89 83 78 72 70 71 70 71 70 69 71 77 79 81 77 73 71 78 78 75 77 80 81 86 94 96 98 98 100 100 99 100 94 89 92 89 81 67 58 59
96 96 78 83 81 79 74 69 67 65 67 73 76 79 81 86 84 80 77 75 73 78 81 82 82 79 84 96 99 95 95 90 92 84 94 93 90 78 76 71 71 56 45
87 82 69 71 72 78 74 72 70 68 65 62 76 85 84 85 84 82 79 83 84 84 85 83 86 68 71 94 93 81 89 82 89 79 78 78 72 70 71 67 54 40 38
73 76 66 67 67 67 67 65 65 67 69 71 71 69 76 82 82 81 79 78 75 71 67 60 61 63 75 88 82 84 86 85 86 81 80 84 83 82 70 55 40 39 39
49 45 43 43 44 46 47 47 46 45 44 43 42 40 39 38 37 36 35 34 37 38 44 54 62 74 87 83 82 87 91 92 88 88 88 89 78 74 58 41 40 39 39
48 47 47 46 46 45 44 43 42 40 38 36 35 35 34 34 35 34 32 30 28 27 35 48 63 72 81 83 86 87 82 78 79 82 69 81 59 51 40 40 42 44 42
50 50 51 51 49 47 45 45 43 42 40 38 36 32 31 32 31 30 28 29 30 29 27 31 57 74 78 78 80 85 85 86 82 79 83 60 50 42 40 36 35 35 38
59 60 60 58 57 55 53 51 48 42 38 37 37 36 35 32 30 28 29 30 30 30 32 33 50 66 76 80 82 85 88 88 91 72 52 47 44 41 38 40 38 38 37
68 69 66 63 61 59 58 56 54 52 50 47 43 38 34 30 28 25 23 24 29 34 37 40 47 63 81 87 88 88 89 88 60 59 57 50 46 44 42 39 37 38 43
79 83 81 78 72 62 53 46 41 40 40 39 38 37 36 33 30 30 30 29 28 30 36 40 44 52 55 56 56 57 59 61 69 59 50 47 46 44 42 40 39 40 30
88 89 82 67 57 53 51 47 42 39 38 38 37 36 35 36 32 27 30 31 32 33 37 41 39 45 57 59 56 61 64 64 60 52 51 50 46 45 43 43 40 37 40
72 60 56 53 43 37 39 39 38 36 34 33 32 31 31 30 30 26 25 27 26 29 37 42 43 49 57 66 66 67 70 70 58 58 57 50 49 47 44 44 38 42 38
46 35 32 32 35 39 40 37 32 27 27 29 34 39 40 38 36 32 30 27 26 30 46 52 58 62 69 75 81 83 77 65 61 62 59 57 53 52 52 42 45 42 28
36 41 46 46 42 34 27 22 18 17 18 18 19 18 19 22 36 46 42 38 35 38 55 61 72 73 78 90 90 83 76 69 63 65 69 65 60 60 56 51 48 32 10
48 50 48 40 28 24 24 24 25 24 22 20 18 17 18 19 18 16 34 50 47 58 70 74 89 96 96 96 94 89 85 81 78 80 77 69 68 66 64 60 51 20 8
56 58 50 39 31 29 28 28 28 26 24 21 17 15 14 14 16 18 20 18 48 65 88 87 100 100 99 98 98 97 97 95 92 94 89 78 74 73 70 70 56 22 12
64 57 45 35 34 34 34 34 35 40 38 34 32 31 28 28 26 25 24 22 20 55 100 96 99 98 98 98 98 98 98 98 99 97 97 91 79 75 75 78 72 21 16
57 45 39 39 40 42 44 42 37 33 28 20 13 10 10 12 12 14 18 20 18 26 62 96 98 98 97 98 98 99 98 98 100 99 100 92 82 80 80 88 88 25 22
44 44 46 50 49 38 18 8 9 6 6 6 7 8 8 7 6 5 4 6 10 16 43 84 92 96 97 98 97 97 95 96 98 99 99 95 91 86 83 88 87 37 22

GFSMW_700_rhum_081.txt.gz
RH
68 86 100 100 100 98 94 96 94 99 97 88 95 86 69 62 51 50 51 53 55 56 54 55 56 59 54 53 62 60 61 54 48 47 46 44 48 46 36 38 39 40 48
77 84 100 100 100 98 93 100 100 99 98 95 86 83 96 90 78 76 75 83 82 69 76 80 74 73 69 75 80 80 71 62 56 49 56 59 54 48 41 41 42 45 52
84 99 100 100 100 100 98 98 100 100 100 100 96 91 97 100 98 92 90 87 86 91 83 84 83 85 82 88 91 95 97 74 75 81 79 73 70 68 48 46 48 60 66
96 100 97 99 100 100 97 100 100 100 99 98 99 98 99 96 94 98 94 91 89 91 85 81 90 93 92 91 94 99 100 98 96 88 93 89 84 67 61 52 56 71 78
99 84 99 99 99 98 93 94 95 97 96 95 97 96 98 94 97 97 99 98 98 97 87 89 83 78 88 84 81 96 98 100 100 99 99 99 98 94 98 93 94 68 90
88 95 100 100 100 98 98 92 90 93 93 92 99 95 96 98 98 93 98 93 94 80 89 99 95 97 94 95 91 90 100 99 100 100 100 100 99 100 100 99 99 98 83
97 98 100 100 100 100 83 80 76 81 77 74 73 78 78 94 90 95 94 87 88 87 79 75 81 89 99 99 94 98 96 97 99 98 99 100 100 100 100 99 99 92 84
100 99 100 100 100 94 84 80 78 75 72 72 70 69 76 77 79 81 83 81 82 84 82 78 78 84 76 69 76 79 97 98 98 93 98 90 100 93 100 95 88 80 66
99 100 99 100 99 95 84 80 78 74 73 75 74 74 73 78 78 81 84 83 80 80 79 84 82 83 85 79 66 86 92 97 99 98 98 99 95 94 91 88 74 70 62
100 96 98 92 88 82 85 79 74 72 71 67 64 74 79 83 85 86 87 85 84 81 85 88 85 87 84 85 68 71 97 93 89 98 97 93 92 87 82 78 84 86 73
98 97 98 89 83 84 82 79 77 75 74 72 71 69 66 69 73 79 82 82 81 79 78 76 74 72 66 69 67 87 86 76 82 86 81 76 72 74 81 76 74 71 53
86 90 84 78 59 56 53 51 49 46 44 43 42 39 39 39 39 37 38 38 37 36 34 37 44 43 56 63 73 92 82 85 86 86 90 90 87 87 86 82 68 53 38
62 59 56 53 53 52 50 47 46 44 44 42 41 39 35 32 34 35 34 34 33 31 29 28 28 36 49 67 82 92 84 88 89 90 87 83 86 75 80 64 49 38 36
59 60 63 60 57 55 53 51 49 48 48 46 42 40 37 35 33 30 30 30 31 30 30 30 29 28 37 62 80 93 90 97 99 96 89 91 84 88 60 48 40 37 36
62 60 59 58 57 56 55 54 51 48 45 42 41 38 36 37 37 35 33 31 30 29 30 30 31 32 31 50 81 94 97 96 93 94 95 94 94 75 52 44 40 39 40
60 60 60 61 61 59 59 59 55 50 46 44 42 41 41 41 41 38 34 32 29 26 25 26 31 35 36 38 84 100 100 100 95 90 91 93 88 54 50 45 43 42 41
66 67 67 69 72 68 63 52 44 40 39 38 37 37 37 38 37 36 35 32 30 29 30 30 31 35 40 48 50 67 87 95 92 90 79 85 65 59 51 47 46 46 42
77 79 79 72 56 44 41 38 35 33 31 30 31 32 31 32 32 32 32 33 33 29 27 31 33 35 42 49 58 61 56 57 64 62 57 55 69 62 58 56 52 46 43
81 69 55 50 38 30 31 33 34 33 32 32 32 32 31 32 32 33 33 32 31 29 26 25 28 31 41 50 56 61 65 61 64 68 76 78 66 68 62 56 51 49 46
45 34 27 27 30 38 44 44 42 40 36 30 26 24 22 24 23 25 29 35 39 37 32 28 26 27 33 51 69 71 73 77 83 83 84 77 71 69 61 59 56 52 47
34 35 36 40 46 48 46 42 36 30 26 24 22 20 18 17 16 15 15 15 16 29 42 38 37 32 34 48 69 77 80 91 94 91 87 73 69 68 69 66 61 59 54
38 40 45 52 56 54 46 36 32 31 30 31 34 38 40 40 34 23 14 13 14 16 16 33 45 47 64 68 75 91 96 100 97 96 84 79 74 74 76 70 66 66 60
43 48 59 64 59 46 40 39 39 41 46 50 51 50 49 48 47 45 42 35 18 13 15 18 24 58 82 86 91 98 99 96 99 99 93 87 84 82 86 81 74 72 68
58 66 67 61 49 44 44 46 51 52 50 44 38 33 30 27 25 25 25 27 30 28 20 20 21 20 77 98 100 100 100 99 93 97 96 93 88 89 94 90 79 76 77
67 65 57 49 49 53 52 46 38 27 18 12 9 8 8 7 6 7 7 7 6 8 15 21 22 20 32 100 100 100 99 99 98 99 97 96 93 94 95 96 96 85 83
55 51 53 55 42 26 18 15 15 16 16 14 12 12 11 11 11 10 11 17 14 11 10 8 10 16 23 79 98 100 99 98 100 93 87 96 99 98 97 98 97 92 86

GFSMW_700_rhum_084.txt.gz
RH
81 85 92 74 87 98 92 97 99 90 84 69 97 92 67 66 80 73 72 53 51 54 56 52 50 51 51 51 50 52 49 53 62 61 54 48 46 53 50 45 40 37 40
81 91 86 62 80 100 96 99 97 97 99 98 98 79 75 72 67 68 59 65 62 57 60 58 57 56 57 57 58 62 62 70 70 79 71 64 70 65 56 54 46 42 44
85 72 69 84 89 100 100 100 100 97 99 100 100 100 78 83 71 78 76 80 72 65 75 75 72 76 73 78 75 69 73 82 84 90 90 83 76 76 67 66 56 46 48
85 92 88 97 100 100 98 100 100 100 100 100 100 100 95 88 99 97 97 100 95 99 97 85 78 80 91 84 82 94 94 88 98 99 99 97 98 98 90 82 70 54 60
89 88 90 98 99 98 100 100 100 100 100 100 100 100 98 98 100 95 94 96 100 100 98 99 82 85 90 75 76 90 93 96 99 97 95 99 100 100 100 99 87 85 98
100 91 82 88 100 100 100 99 100 100 98 91 100 99 98 100 100 89 98 98 84 97 98 97 86 73 62 74 76 80 83 86 90 90 100 100 100 100 100 100 100 99 98
100 94 88 99 100 100 99 95 98 96 91 93 96 99 94 99 92 92 95 98 86 85 76 89 85 78 96 90 76 73 88 99 97 97 99 97 100 100 100 100 100 94 97
100 99 97 99 99 96 90 91 92 90 90 85 84 86 93 89 87 83 84 81 84 86 84 77 74 69 90 84 84 95 100 100 87 100 99 98 97 98 82 99 83 83 98
100 100 100 99 98 94 94 96 87 82 79 79 79 78 78 80 81 84 87 87 83 82 81 82 82 84 81 83 88 87 87 96 99 95 90 95 92 95 98 92 100 94 88
99 100 99 100 99 98 98 88 82 77 76 74 71 71 75 80 84 87 88 88 86 84 83 82 82 83 82 84 87 88 79 73 88 100 100 100 100 100 100 98 97 84 82
100 100 98 97 100 99 97 91 86 82 81 79 75 72 70 71 72 76 80 83 85 84 82 80 75 76 76 75 75 70 73 64 81 97 86 98 97 89 83 82 80 84 88
99 99 99 94 78 72 64 56 54 51 48 46 44 42 40 39 39 38 38 38 37 38 36 35 33 32 35 47 47 54 66 72 84 81 81 86 84 88 85 86 89 82 81
81 75 71 64 61 58 54 52 50 48 47 46 44 42 39 38 36 34 33 33 32 36 35 33 32 31 29 28 33 51 70 80 87 85 86 86 90 97 95 92 78 71 59
70 65 62 59 59 57 57 56 54 52 51 49 48 46 44 42 38 35 32 30 29 30 30 29 30 31 31 31 30 44 87 88 96 90 92 96 97 94 90 91 90 88 60
57 55 57 58 58 59 59 58 59 58 56 52 48 46 45 45 44 43 41 38 35 32 31 30 30 30 31 31 32 39 78 93 100 96 97 99 100 96 95 93 91 69 58
62 66 64 63 62 62 61 62 60 54 48 43 39 37 35 34 34 35 36 37 38 38 36 33 31 28 28 33 39 39 42 100 98 98 99 100 100 96 93 92 81 52 50
66 67 67 67 70 70 64 54 45 41 37 33 30 29 29 30 30 30 32 33 34 34 34 34 33 30 30 30 36 45 55 59 99 100 97 99 100 100 96 92 68 64 49
71 71 72 78 67 49 42 36 27 26 23 26 28 31 33 32 32 31 29 28 29 30 32 32 34 33 28 31 36 42 44 50 62 80 97 99 100 99 92 78 75 60 52
78 78 65 49 36 26 24 28 34 36 37 38 39 38 38 37 37 35 32 30 31 32 32 34 35 32 29 28 31 37 45 49 52 60 66 69 70 75 71 81 70 62 58
51 44 34 34 36 39 41 44 45 44 43 44 43 43 43 39 37 34 32 28 24 21 18 17 24 37 38 36 34 39 50 56 69 72 68 68 70 74 78 83 70 69 63
37 37 38 37 35 40 51 56 57 57 56 54 54 52 50 50 50 50 48 45 38 25 19 17 15 15 24 41 43 45 53 74 80 83 90 88 89 94 91 80 75 73 68
37 36 37 42 50 59 62 61 60 58 58 56 54 54 55 54 54 53 52 52 51 50 48 44 26 13 15 18 45 53 55 76 93 97 98 100 100 96 91 82 78 76 72
37 39 38 44 56 61 62 58 52 46 47 49 50 50 47 44 42 40 39 39 39 39 40 40 39 35 19 16 19 65 84 90 100 100 100 100 100 96 91 80 76 80 80
36 42 50 56 57 51 46 38 26 30 29 27 24 20 17 14 13 11 11 11 11 11 12 15 20 26 29 23 23 29 100 100 100 100 99 99 99 100 89 83 75 79 83
44 44 46 44 33 22 15 12 12 13 13 13 14 15 18 16 13 12 11 11 11 12 11 10 9 7 9 13 18 39 73 99 100 100 100 98 99 100 96 89 81 81 86
36 37 29 16 10 10 11 12 16 20 22 24 27 27 22 18 16 14 12 11 10 10 10 10 11 16 14 11 11 15 91 100 97 95 96 98 98 99 100 100 96 90 91

GFSMW_700_rhum_090.txt.gz
RH
28 62 66 54 43 40 53 57 51 76 87 98 93 93 98 83 75 86 99 84 40 26 31 83 75 34 40 45 47 52 53 52 52 48 47 51 55 56 58 57 53 51 46
51 50 54 54 47 62 68 66 67 71 84 94 94 98 100 97 73 85 96 98 86 58 65 82 62 38 41 47 50 51 51 52 51 50 57 63 65 65 68 69 70 68 61
65 58 59 73 75 74 71 71 68 67 66 80 92 95 97 99 99 86 97 97 93 65 54 53 47 44 45 49 51 51 53 56 63 71 74 77 82 90 93 92 89 87 86
65 68 80 76 81 89 83 72 77 84 73 67 90 98 96 99 100 83 98 98 98 97 92 67 56 48 52 53 56 58 68 77 82 90 91 92 91 94 84 96 97 94 98
79 87 72 84 98 100 99 96 92 90 78 97 99 100 100 100 100 99 99 100 100 99 99 99 100 89 78 89 90 87 88 91 92 93 88 98 90 83 82 96 96 95 95
74 86 76 88 99 98 99 98 100 99 82 100 100 100 100 100 100 100 100 100 100 100 99 99 99 100 98 100 98 100 99 98 98 96 92 83 78 72 77 80 86 83 90
96 89 100 99 100 100 100 100 100 100 97 100 100 100 100 100 100 100 100 99 100 100 100 99 100 99 99 100 99 98 98 98 98 91 86 85 86 83 95 94 91 84 88
100 99 99 100 100 99 100 100 98 100 100 100 100 100 100 100 100 100 100 99 100 100 99 99 100 100 100 99 98 99 100 100 100 100 97 86 96 99 100 100 99 95 97
99 99 100 99 100 100 100 99 100 100 98 99 100 99 98 99 100 100 100 100 100 98 98 100 99 97 95 97 95 96 99 100 99 100 98 94 99 100 100 100 99 98 99
99 99 99 99 100 100 100 100 98 97 94 94 93 88 93 95 91 96 98 98 100 99 100 100 100 100 99 100 99 99 99 99 99 98 98 94 97 97 98 99 100 88 86
99 99 99 99 99 99 97 95 86 81 77 75 76 75 69 66 73 82 89 89 91 95 93 88 96 98 98 99 97 96 95 92 91 88 92 93 83 89 98 95 99 100 99
100 99 97 91 90 81 74 67 56 51 48 46 44 43 42 41 40 40 40 43 49 59 73 86 92 92 91 92 92 90 89 92 91 88 87 84 86 84 90 96 100 100 90
76 70 70 67 63 61 58 56 54 51 49 46 46 44 42 42 42 40 37 38 39 39 38 39 41 41 40 40 39 39 41 40 42 54 71 74 76 82 92 98 98 100 99
70 68 68 66 64 61 59 59 58 57 56 55 53 51 49 47 45 41 42 41 40 40 39 38 36 34 35 35 35 35 35 35 34 33 34 42 76 90 100 100 95 90 88
65 64 67 66 66 66 65 64 62 58 56 54 49 45 42 40 40 40 40 40 39 39 39 39 40 38 38 37 34 33 32 32 32 32 33 39 92 80 95 100 92 94 100
64 68 66 68 67 67 67 68 66 56 45 39 34 30 26 24 23 23 24 25 27 29 31 32 32 34 36 38 39 39 37 34 32 31 32 34 60 88 100 100 96 97 96
66 68 68 68 72 70 62 53 44 35 28 23 22 23 23 23 25 26 26 26 26 26 24 22 21 23 26 29 31 33 35 37 34 32 33 46 70 87 90 92 99 100 100
66 68 69 67 53 47 37 31 27 26 25 23 22 23 28 31 30 28 25 25 24 22 23 26 28 28 28 27 27 28 30 32 34 34 33 36 50 82 84 91 97 92 97
64 63 53 41 37 30 26 27 27 26 27 27 33 39 41 39 37 36 33 29 26 26 25 25 26 26 30 30 30 29 30 31 33 34 33 34 44 57 77 94 97 98 100
56 44 40 39 36 34 31 31 33 34 36 37 35 29 22 20 22 21 19 20 27 33 41 45 45 44 42 38 32 27 24 24 27 39 37 35 38 58 69 82 91 95 98
39 39 35 35 35 34 35 36 34 28 24 20 17 17 18 19 23 24 26 27 29 31 35 39 46 48 49 51 52 48 36 24 19 18 31 44 42 48 66 77 77 83 98
36 36 36 34 32 26 21 18 16 12 9 7 7 7 9 13 23 32 36 39 40 40 42 44 44 47 46 45 45 47 50 52 44 24 16 22 50 50 53 62 78 99 99
31 29 27 23 21 19 15 9 6 6 6 6 6 7 9 10 12 12 12 12 14 15 15 16 16 18 18 18 18 20 25 34 41 47 40 17 28 72 79 75 97 100 100
28 25 21 19 15 9 6 5 5 4 5 6 8 10 12 12 13 18 23 22 22 24 25 25 22 18 16 16 16 14 14 12 14 23 31 34 22 88 100 100 100 99 100
21 20 17 10 7 6 5 4 5 8 13 15 13 10 11 14 16 21 30 33 27 22 22 22 22 20 18 15 12 11 10 12 13 12 13 20 39 95 99 99 99 98 96
18 12 8 6 5 4 5 11 16 19 17 11 8 9 10 13 17 20 22 44 39 26 26 26 25 21 17 14 12 11 11 11 10 10 13 13 16 82 98 98 98 97 100

GFSMW_700_rhum_093.txt.gz
RH
18 23 49 71 84 74 67 56 46 33 46 56 56 60 70 84 88 93 92 90 93 92 87 93 95 99 89 50 49 50 49 51 53 55 54 52 50 47 51 54 52 52 54
46 31 38 63 73 63 58 57 41 38 58 67 60 58 75 87 88 99 93 98 96 100 90 91 86 63 90 55 51 51 52 50 53 54 53 53 50 49 52 56 59 61 66
51 44 32 44 51 53 47 41 53 68 68 63 61 67 76 88 98 100 98 98 98 99 100 92 48 60 100 60 50 47 51 52 53 53 53 53 52 55 73 80 79 83 81
68 53 40 33 34 44 60 62 64 69 61 58 68 76 84 86 97 100 100 97 96 97 99 98 76 70 95 60 49 54 56 59 55 54 55 58 70 78 84 93 92 86 85
85 81 72 68 68 65 69 82 72 81 75 74 84 84 85 74 75 98 100 100 100 100 100 100 96 96 95 78 66 63 62 64 64 71 75 84 87 94 90 91 81 90 84
82 85 89 96 82 87 96 87 97 100 98 92 78 100 93 99 98 99 100 100 99 99 100 99 96 87 83 83 95 94 92 84 85 86 93 98 99 99 99 98 97 96 80
90 81 98 87 81 98 94 97 99 99 99 100 99 99 100 100 100 100 100 100 100 100 100 100 100 98 95 97 99 91 81 88 96 100 99 99 98 98 98 97 94 87 92
99 100 93 99 99 100 100 100 100 100 100 100 99 99 96 98 99 100 100 99 100 100 100 100 100 100 100 99 100 98 100 100 100 100 100 97 97 98 100 99 90 92 97
99 100 99 99 99 100 100 99 100 100 98 97 100 100 100 99 99 98 100 100 100 100 100 100 99 100 100 100 98 99 100 100 99 99 99 100 100 100 99 98 100 100 100
99 99 99 99 99 99 99 99 100 99 99 98 96 96 95 86 95 100 100 99 100 100 100 100 100 98 100 100 98 99 99 99 96 98 100 100 100 100 100 99 100 100 99
98 99 99 99 98 97 82 76 63 62 60 54 54 63 61 49 52 68 90 92 90 92 96 96 98 98 99 100 100 100 99 97 99 99 100 100 100 100 100 100 99 99 99
99 99 99 97 70 65 61 58 55 53 52 48 46 47 46 45 44 44 41 40 42 52 70 83 90 90 89 94 99 99 100 98 95 92 95 98 98 97 96 95 100 98 99
73 74 72 71 70 67 66 63 63 61 59 57 54 52 48 46 46 46 45 44 43 42 40 37 36 37 41 44 47 49 58 68 69 73 75 78 79 82 81 91 91 99 92
74 75 74 73 71 67 66 64 62 59 57 55 53 50 48 46 44 44 45 46 46 46 45 45 45 44 42 38 36 36 35 34 36 36 36 35 34 36 50 84 73 88 99
71 71 71 68 64 63 62 61 61 60 56 49 42 37 34 31 30 29 28 29 30 32 34 35 36 36 38 40 42 42 42 40 36 34 33 34 36 36 33 43 53 98 100
65 66 65 65 65 64 62 60 52 44 35 30 26 22 20 20 19 18 19 20 20 19 18 19 20 22 26 28 31 32 34 38 41 42 39 35 33 32 35 69 95 99 99
66 66 67 69 66 61 56 43 33 26 23 22 20 18 17 17 15 16 16 16 18 18 17 18 20 22 24 26 28 27 27 28 31 34 37 39 36 34 49 64 82 82 96
71 70 69 67 55 40 31 26 22 19 17 17 16 15 14 14 15 16 14 16 17 16 16 18 20 19 20 20 23 26 29 30 30 28 30 33 37 36 36 85 49 100 100
62 58 45 35 29 24 19 18 18 18 16 14 13 13 13 13 13 13 12 12 12 12 12 14 17 19 23 31 31 29 29 30 29 28 30 34 35 37 40 51 69 87 100
31 30 34 33 29 29 29 28 23 18 16 15 12 8 7 7 7 7 7 8 10 12 18 24 35 40 42 45 46 47 46 41 36 27 22 22 35 43 40 41 56 83 78
39 38 38 37 36 29 23 18 16 15 10 8 7 6 5 4 4 4 5 4 4 4 5 6 8 10 15 23 33 43 49 50 50 50 47 29 18 25 52 47 45 53 99
40 38 34 29 22 18 16 15 10 8 7 5 4 4 6 8 10 11 12 12 12 11 11 10 9 8 9 12 13 15 17 23 35 45 49 52 51 27 20 52 54 68 96
32 27 24 21 18 16 11 8 7 6 4 5 9 12 13 14 13 10 7 6 6 6 6 7 8 11 14 16 21 22 22 20 17 16 22 32 41 46 42 21 51 88 98
24 20 17 17 13 9 8 6 5 5 8 12 13 13 12 8 5 6 8 8 8 9 10 11 15 18 22 21 22 22 21 21 20 18 15 13 18 29 36 36 35 99 100
18 18 16 11 9 8 6 5 7 10 13 14 14 11 6 5 6 14 19 19 16 15 14 17 25 28 28 23 20 20 19 18 15 15 18 18 16 13 18 26 40 100 99
18 14 10 9 8 5 5 8 11 14 16 16 14 8 5 8 24 33 34 37 39 36 27 24 33 42 43 28 22 24 23 18 14 13 12 12 12 17 20 24 38 92 98

GFSMW_700_rhum_099.txt.gz
RH
40 38 40 32 13 13 38 82 87 82 74 68 62 58 52 46 42 31 28 21 45 58 69 71 67 70 74 67 72 63 72 89 97 94 94 92 64 61 58 58 54 50 48
71 67 66 32 20 17 56 86 82 77 72 66 61 52 44 44 46 39 23 26 44 53 68 70 73 74 85 86 89 80 91 93 94 100 100 96 72 58 59 57 56 54 51
72 74 59 34 23 24 66 79 81 74 74 70 64 56 47 40 32 27 32 48 45 50 66 75 76 84 87 94 94 88 95 92 96 100 97 83 60 66 62 66 57 55 53
76 81 86 48 40 45 72 77 80 85 78 67 54 45 35 40 55 52 52 49 50 56 58 72 91 87 91 97 100 93 98 99 98 100 99 94 96 80 64 57 58 57 56
87 89 94 86 77 69 78 80 80 79 65 54 44 33 50 53 58 58 59 49 50 53 69 69 85 91 93 100 100 99 100 99 100 100 100 99 93 98 82 59 59 60 62
95 93 84 89 82 69 72 69 66 54 44 39 51 58 64 67 75 85 90 72 83 80 95 75 78 86 92 98 100 98 97 98 100 99 100 99 93 98 91 75 70 78 75
95 100 100 99 87 82 76 70 63 64 74 83 88 96 96 92 99 99 100 100 98 97 99 93 94 93 99 100 98 100 100 100 100 100 100 100 97 94 87 93 98 98 83
99 100 100 100 100 100 95 95 100 91 60 98 96 97 100 100 100 98 96 100 98 100 100 100 100 100 99 99 99 100 99 100 99 100 100 99 100 96 97 99 98 99 99
99 99 99 99 98 99 100 99 99 99 100 99 100 100 100 100 100 98 97 100 100 99 100 100 99 100 100 99 100 100 100 100 100 99 98 99 100 98 98 99 99 99 100
98 98 99 99 99 99 99 99 99 98 98 96 96 98 99 98 94 84 84 71 86 97 100 100 100 100 100 100 100 100 100 99 99 100 100 100 100 99 100 100 100 99 99
98 98 98 99 99 98 96 96 95 95 89 79 86 63 62 68 64 58 50 49 48 49 49 67 84 96 98 99 100 100 100 100 99 100 100 100 100 99 100 100 99 100 100
98 97 96 94 89 81 76 75 73 70 68 60 57 54 51 48 45 44 43 44 45 46 48 48 48 48 47 45 48 75 98 98 99 100 100 100 99 100 100 100 100 100 99
94 87 79 77 75 73 71 69 66 63 58 52 45 39 34 30 27 25 23 23 23 24 26 27 30 34 39 43 44 45 45 46 44 49 65 68 91 98 99 99 98 97 97
72 72 71 71 70 69 67 64 59 50 40 30 24 20 16 15 14 14 12 12 11 12 11 11 12 14 15 17 20 25 31 36 40 42 43 43 42 40 41 47 62 71 62
67 66 66 66 66 66 64 58 45 31 23 17 14 14 14 12 11 10 10 10 10 10 9 10 9 9 9 9 10 10 11 13 17 20 26 33 38 43 44 43 39 37 37
66 66 66 68 63 58 53 39 27 22 20 19 17 14 12 12 12 12 13 13 13 13 13 12 13 13 13 13 13 12 11 10 11 12 15 19 21 24 31 38 44 44 41
63 63 65 65 59 46 36 31 26 25 21 18 14 12 13 14 14 14 13 12 11 10 9 8 7 7 7 8 9 10 12 14 15 18 22 24 27 29 27 28 33 38 44
52 50 46 42 39 36 32 29 25 20 16 14 14 15 14 13 12 11 9 6 5 4 4 4 4 4 4 4 4 4 5 6 7 8 10 16 22 31 34 30 29 39 43
40 37 34 33 33 32 29 23 17 14 13 15 15 14 12 11 8 5 4 4 6 7 7 7 7 6 6 6 6 6 6 6 5 5 6 6 5 6 13 31 34 27 35
28 29 30 26 22 18 15 14 13 14 16 15 13 12 9 6 4 4 6 8 8 8 9 8 7 6 5 6 6 5 5 5 5 5 5 4 4 6 8 6 16 36 33
20 20 19 18 16 15 14 14 16 16 14 12 11 8 5 4 5 8 10 10 11 12 11 9 6 6 9 12 14 15 14 13 14 15 16 13 9 6 8 9 10 22 37
20 22 22 20 18 18 17 17 16 13 12 11 7 4 5 7 9 11 13 14 14 14 12 8 6 10 17 21 26 30 31 30 28 26 25 19 12 8 9 12 12 22 38
20 20 21 20 18 17 18 15 13 12 10 6 5 6 9 12 14 15 16 16 17 17 14 10 12 17 22 23 23 24 27 33 37 37 30 21 14 13 14 15 14 17 26
20 18 18 17 18 17 14 13 12 10 6 5 6 10 13 15 16 17 17 18 20 20 17 14 15 18 18 14 13 16 19 24 36 41 32 22 20 19 17 17 16 18 20
19 18 18 18 17 14 13 12 10 7 6 8 12 15 16 17 15 16 17 18 18 21 21 18 15 15 14 13 15 24 33 33 35 45 40 28 29 20 18 17 16 15 19
19 18 19 18 15 13 12 10 9 7 9 12 16 17 16 14 14 13 14 18 19 21 22 19 18 17 19 24 36 50 62 56 48 52 44 37 39 24 20 19 15 14 14

GFSMW_700_rhum_102.txt.gz
RH
38 34 32 37 41 40 24 19 18 49 63 77 92 87 78 74 66 58 51 48 43 38 34 26 36 55 60 63 68 69 71 61 66 74 87 92 100 91 93 85 71 59 60
52 62 56 59 58 51 28 19 20 59 99 98 91 82 76 68 62 53 45 48 45 40 27 22 31 54 61 67 62 66 73 79 79 77 73 84 96 99 87 92 90 65 82
62 65 63 70 50 39 30 23 26 94 93 89 84 77 70 61 56 49 48 45 38 37 31 31 40 48 55 64 73 83 84 90 94 90 98 91 96 88 92 91 78 87 91
73 68 67 75 62 33 31 31 63 82 84 82 84 75 66 61 55 51 42 35 51 53 56 56 49 50 56 63 77 86 90 94 98 96 91 99 98 98 96 93 78 90 70
60 69 82 83 72 70 71 79 85 88 93 83 72 72 66 57 50 34 45 51 58 63 57 48 47 56 60 63 80 91 80 88 100 98 78 98 100 100 99 100 100 85 86
67 72 94 98 77 64 73 82 90 88 94 86 82 72 60 46 33 54 76 85 97 93 74 73 66 86 84 91 84 89 96 98 98 100 99 96 100 100 100 99 100 98 99
100 99 99 99 98 80 59 55 67 79 75 66 58 53 76 65 88 93 95 100 94 100 99 90 88 97 90 89 97 89 97 99 99 100 99 100 100 100 100 100 99 99 96
99 100 98 99 98 98 92 79 75 72 63 59 94 98 97 98 99 100 100 96 98 100 100 100 100 100 100 100 99 100 100 100 100 98 99 100 100 100 100 99 100 100 100
95 100 98 98 99 98 99 99 99 100 100 100 100 100 99 100 100 99 100 95 91 99 100 100 100 100 100 100 100 99 100 100 100 100 100 100 100 100 100 100 100 100 99
97 99 99 98 98 98 98 99 98 98 98 99 99 99 98 99 99 87 79 76 69 79 81 96 99 100 99 100 100 100 100 100 100 99 100 100 99 99 99 99 100 99 99
99 99 98 98 99 98 96 96 95 95 93 87 85 71 60 63 61 59 54 52 54 54 54 53 51 67 89 99 100 100 100 100 100 100 100 100 100 100 99 99 98 100 99
99 99 97 95 93 87 84 83 78 69 63 56 50 44 40 36 34 32 31 30 30 29 30 32 34 38 42 45 48 46 50 61 87 100 100 100 99 100 100 99 100 100 100
82 72 72 70 69 68 68 66 60 52 42 33 27 23 19 17 15 14 13 14 13 12 12 13 13 15 17 20 24 30 36 42 44 45 45 46 58 77 96 98 98 99 99
66 65 64 66 69 71 69 64 52 38 28 22 19 18 16 15 14 13 12 11 10 10 10 10 10 11 11 10 12 13 13 16 18 23 29 36 40 43 44 46 59 71 76
61 62 63 65 66 62 55 43 31 22 18 17 16 14 12 11 11 12 13 14 14 13 13 13 12 12 12 12 12 12 10 10 12 13 16 18 21 24 30 37 43 45 44
62 64 65 64 60 53 39 28 23 21 20 18 16 14 13 14 15 14 13 12 12 11 10 9 8 7 6 6 5 5 5 6 8 11 13 14 15 16 19 23 23 28 38
65 64 59 49 40 34 30 29 28 26 21 17 14 14 15 15 15 14 12 11 9 7 5 4 3 3 3 3 3 3 3 3 3 3 4 4 6 9 14 19 22 26 27
48 42 36 34 35 34 34 33 28 21 16 14 15 16 15 14 13 12 10 7 5 3 3 4 5 5 4 4 4 4 4 4 4 4 4 4 4 5 5 5 6 11 21
37 34 33 33 35 35 35 30 24 20 17 17 16 15 14 13 12 9 6 4 4 5 6 7 7 6 6 6 6 6 6 5 5 5 5 5 5 4 4 5 5 5 5
30 32 35 34 31 29 25 20 17 16 17 17 14 13 12 10 7 5 5 6 7 8 8 8 8 8 8 8 8 7 6 6 7 7 8 8 9 10 10 9 9 8 6
28 27 27 28 28 22 20 18 16 17 16 14 13 12 9 6 5 6 8 9 10 11 11 10 10 11 11 12 10 8 9 12 13 15 17 19 22 22 21 20 18 16 11
23 25 25 22 20 19 17 17 18 16 14 13 11 8 6 6 8 9 11 13 13 12 11 11 12 14 15 14 13 17 22 23 21 19 20 22 26 30 33 30 23 17 12
24 24 23 19 19 18 18 18 16 14 13 12 10 9 8 9 11 14 15 14 12 12 12 13 13 15 17 18 16 15 18 17 14 14 16 17 20 26 38 37 24 17 11
27 25 21 19 18 18 19 19 16 14 14 30 25 12 13 15 16 15 13 12 12 12 13 14 16 16 18 18 17 15 14 15 19 32 36 34 34 36 43 38 24 16 13
18 16 17 17 20 24 23 17 14 18 40 26 13 19 16 15 14 12 12 11 12 13 13 14 15 17 20 22 24 22 20 25 38 53 58 62 57 48 48 36 26 19 16
17 18 18 23 31 27 20 15 28 48 24 17 22 15 16 13 12 11 10 12 14 21 34 47 58 68 75 81 80 78 76 74 77 79 80 76 73 61 55 39 34 20 19

GFSMW_700_rhum_105.txt.gz
RH
28 31 32 37 46 49 48 39 28 26 25 18 28 48 97 100 94 82 77 71 66 58 55 49 46 44 38 34 30 51 57 61 61 61 58 67 85 76 80 93 99 95 91
40 50 52 53 56 55 57 52 50 51 30 24 28 60 99 98 98 92 78 72 64 57 52 48 45 43 39 31 23 43 59 61 64 69 78 74 62 71 74 67 82 92 98
46 43 53 57 64 63 44 24 26 53 57 38 47 88 98 92 92 83 76 67 60 53 47 47 46 41 42 38 26 38 53 67 71 77 82 84 80 75 68 72 76 71 81
64 56 53 67 74 78 59 56 94 47 33 39 60 82 92 98 90 92 74 63 56 53 51 43 34 36 36 32 32 47 56 60 71 84 86 90 95 94 100 97 86 85 82
61 53 50 51 73 79 78 88 92 68 67 85 82 92 99 99 91 83 67 61 58 51 33 48 56 54 48 46 52 60 65 67 76 86 90 93 96 100 100 99 99 91 87
66 50 51 71 87 84 75 81 93 97 98 99 98 97 92 93 81 75 68 62 50 42 72 79 75 81 73 55 61 69 80 89 88 86 93 98 84 100 100 98 100 97 98
75 70 94 96 99 98 89 73 69 81 87 86 97 97 93 91 80 64 52 46 83 80 96 100 99 95 84 84 86 89 92 95 88 87 89 100 99 100 98 100 99 100 98
87 84 83 99 94 97 98 88 81 62 62 68 60 67 63 60 45 83 100 99 100 100 99 100 100 100 97 100 100 100 99 100 100 100 100 100 100 98 100 100 100 100 99
82 88 93 94 95 98 100 99 96 88 88 97 100 78 82 65 85 97 99 98 99 95 93 92 99 100 100 100 100 100 100 100 100 99 99 100 100 100 100 100 100 100 100
81 97 100 99 100 99 98 99 99 98 98 99 99 99 99 100 99 99 95 84 86 92 81 69 75 92 99 99 100 100 100 99 100 99 100 100 99 100 98 100 100 100 100
84 99 98 98 98 97 96 91 91 91 86 80 76 77 58 58 61 57 50 42 40 41 44 43 41 43 52 52 80 96 100 100 100 99 99 100 100 100 100 100 100 99 99
93 89 77 71 67 67 72 71 65 54 46 39 34 30 28 26 24 24 23 22 21 20 19 19 19 20 20 22 24 31 40 44 46 56 80 100 100 100 100 100 100 99 100
67 69 70 69 70 70 69 66 58 46 34 26 21 18 17 16 15 15 14 13 12 12 11 11 11 12 11 11 10 11 15 19 24 32 40 45 46 57 67 95 100 100 99
65 68 68 69 68 68 65 60 50 35 26 22 19 17 15 13 11 10 10 11 12 13 13 13 13 13 13 13 13 13 12 12 11 11 13 17 22 29 37 44 49 56 78
61 63 64 65 67 68 62 52 40 32 27 23 20 16 14 13 13 14 14 14 14 13 12 10 9 7 6 5 5 5 5 6 8 11 12 12 12 13 14 16 23 32 43
56 59 63 64 61 53 43 35 28 23 20 18 16 15 15 15 16 15 14 13 12 10 8 6 5 4 4 4 4 4 4 4 4 3 3 3 4 6 8 11 13 14 15
58 62 64 57 49 36 29 28 27 26 24 21 18 16 16 16 15 14 14 13 11 9 7 6 6 5 5 5 5 4 4 4 4 4 4 4 4 4 4 4 4 5 7
55 56 51 39 33 33 34 32 31 27 22 18 16 17 16 15 14 14 13 11 8 6 7 8 8 7 7 7 7 6 5 5 5 5 5 5 5 5 5 5 4 4 4
35 32 29 30 32 34 35 33 25 21 18 17 17 17 16 15 15 14 12 9 9 14 14 10 8 9 9 9 8 8 7 7 7 7 7 6 6 6 6 6 6 6 7
28 29 32 35 31 26 22 20 18 17 17 18 17 16 15 14 13 12 14 17 15 13 10 10 10 10 9 8 9 9 8 8 9 9 9 8 8 8 8 8 8 8 8
24 25 25 24 25 24 23 21 19 18 18 18 16 16 15 18 33 28 16 18 20 14 12 10 10 9 9 9 9 9 10 10 10 12 12 12 12 14 15 16 16 14 12
22 23 25 28 28 23 20 18 19 20 21 22 19 16 31 41 21 21 22 14 12 11 10 10 9 9 9 10 10 11 12 14 16 16 15 14 16 17 16 17 19 22 24
22 24 24 24 21 19 18 20 29 34 26 19 16 39 38 19 26 17 14 13 12 11 9 9 11 15 18 19 19 17 15 14 14 16 16 15 15 14 13 15 20 22 25
24 24 24 19 18 18 23 37 32 27 19 22 45 32 26 27 14 14 12 12 10 11 19 27 30 31 34 39 43 48 52 56 51 39 31 32 33 28 26 30 40 43 41
23 23 19 18 18 24 38 35 34 27 34 48 32 31 23 14 15 13 12 11 22 26 24 25 27 32 35 42 46 52 56 61 64 70 70 73 78 78 74 68 64 62 53
22 18 19 19 22 38 39 38 38 45 52 34 33 23 14 15 14 12 13 27 27 34 36 37 39 42 44 45 44 48 54 64 74 78 81 85 93 96 99 100 90 70 58

GFSMW_700_rhum_108.txt.gz
RH
36 28 22 23 29 32 35 37 39 39 38 38 25 25 21 12 24 59 85 76 83 80 74 65 67 62 54 53 50 46 40 35 33 36 47 50 46 45 49 56 76 85 84
42 42 44 36 36 40 41 44 48 42 43 48 48 38 28 20 28 52 85 88 87 82 78 74 68 61 57 53 49 45 44 40 36 25 41 61 65 64 61 55 57 64 80
49 44 45 48 39 45 48 47 46 53 33 32 40 64 40 45 48 64 79 98 94 90 86 80 67 61 56 52 50 43 33 30 37 31 41 62 76 72 69 69 67 68 72
58 51 46 39 40 40 51 59 56 80 50 52 49 81 65 62 72 97 88 99 97 89 88 72 68 59 55 51 47 36 36 45 42 42 42 62 73 76 86 80 68 72 72
53 40 38 38 35 46 54 69 61 82 97 85 75 72 78 92 94 99 96 97 94 82 81 71 63 60 54 34 38 49 51 52 56 54 61 74 74 82 93 91 87 96 92
46 36 36 38 45 61 74 79 61 76 76 84 94 100 100 93 94 88 93 99 98 88 78 69 64 54 46 66 63 74 73 65 60 60 66 74 76 76 79 80 92 99 98
68 71 59 58 55 69 75 89 90 78 70 89 100 99 92 96 98 90 93 77 70 68 68 63 57 69 76 98 100 91 83 90 82 79 77 91 95 98 87 89 92 99 97
76 75 79 73 73 72 74 97 99 99 98 93 75 64 69 76 76 72 69 62 52 51 70 84 96 99 100 100 100 100 100 100 100 99 100 100 100 100 100 98 100 99 100
70 72 76 76 81 89 98 99 100 100 100 95 98 99 76 72 54 62 63 66 84 99 99 99 99 97 86 81 97 100 100 100 99 100 100 100 99 100 99 100 100 100 100
69 71 77 81 93 95 97 98 98 98 95 98 98 99 98 98 98 99 100 99 97 93 80 74 71 62 60 45 62 96 100 100 100 99 100 99 100 100 100 100 100 100 100
67 81 90 92 91 72 70 72 64 52 48 43 38 37 42 35 32 36 42 41 41 38 31 29 27 24 22 20 20 22 37 45 76 98 100 99 99 100 99 99 100 100 100
58 64 60 61 61 62 63 61 54 42 33 28 25 22 20 18 17 16 16 15 15 14 13 12 12 12 11 11 10 11 11 11 11 14 26 38 47 94 99 99 99 99 100
47 50 54 58 62 62 60 54 47 40 31 26 22 20 18 17 15 13 12 12 12 12 13 13 14 14 13 13 12 12 11 12 12 12 11 11 13 19 30 52 50 85 100
44 48 55 59 61 60 55 49 41 31 25 22 20 17 15 13 12 12 13 14 15 15 14 14 13 12 10 9 6 5 5 4 4 4 5 6 9 11 12 12 15 20 30
45 53 58 61 59 57 56 48 36 29 26 24 21 18 15 14 14 15 16 16 15 14 14 12 10 8 7 6 6 6 5 5 5 5 4 4 4 3 4 5 7 10 12
48 52 56 59 57 44 40 31 28 26 24 23 20 17 16 16 17 16 15 15 14 13 11 9 7 7 9 11 12 14 11 8 6 6 5 5 4 4 4 4 4 4 4
46 49 50 43 31 27 26 25 25 26 23 19 17 16 17 17 17 16 16 16 15 13 12 14 18 21 20 19 14 10 9 8 7 7 6 6 6 6 6 5 5 5 4
40 40 34 28 26 28 26 25 26 24 22 20 18 18 18 19 18 18 17 20 29 33 30 25 26 23 17 14 11 9 8 8 8 8 8 7 7 8 8 7 7 6 6
19 19 19 21 22 24 28 29 27 24 20 18 18 20 23 20 17 18 33 43 41 34 33 31 22 12 10 10 9 9 8 8 8 8 8 8 8 9 8 8 9 9 9
19 18 20 23 23 25 26 26 22 19 18 20 26 27 21 19 21 36 44 35 36 34 16 11 10 10 9 8 8 8 8 8 9 9 9 9 11 13 13 12 12 11 12
20 22 24 25 24 26 27 24 20 19 21 31 28 26 24 27 43 44 40 39 17 12 11 11 10 10 12 15 16 17 17 18 19 22 24 17 14 15 17 16 15 15 17
19 20 22 23 24 25 24 21 19 22 34 32 33 34 38 49 43 44 28 13 12 11 10 11 14 13 12 12 12 14 17 21 24 25 30 42 46 24 17 17 16 16 17
22 22 23 24 26 23 20 19 23 38 35 35 36 47 51 41 42 22 13 13 12 11 15 16 16 18 18 18 18 20 24 26 28 31 35 43 50 62 64 46 31 26 21
26 25 23 24 23 21 20 21 39 38 36 38 45 48 40 42 23 14 13 13 12 18 20 26 28 28 27 26 25 29 32 26 25 30 32 41 53 63 70 73 74 72 66
27 29 26 25 21 20 20 38 42 38 38 42 43 41 45 28 15 14 14 12 19 22 29 35 37 39 38 36 34 41 43 39 41 44 44 48 57 66 71 77 84 85 86
29 29 26 23 20 20 28 44 43 40 39 39 44 49 35 17 15 14 13 16 26 31 38 46 50 50 50 44 42 50 55 54 57 58 63 66 73 76 78 79 80 90 100

GFSMW_700_rhum_111.txt.gz
RH
34 36 36 34 31 25 24 29 35 35 34 33 31 31 32 32 22 22 26 33 52 81 90 89 81 80 78 68 63 63 59 52 52 51 45 40 36 32 30 46 74 58 49
44 46 45 43 38 35 28 31 32 39 42 39 41 39 34 45 44 30 34 43 68 75 94 94 91 84 80 70 70 64 58 58 55 52 45 34 28 29 28 25 41 54 60
53 51 46 38 35 30 28 31 39 44 43 52 38 20 26 42 59 47 67 53 68 80 98 100 100 96 90 82 73 66 63 60 58 54 49 45 37 38 35 32 35 70 74
60 54 48 32 27 26 28 36 52 54 42 68 58 37 53 79 79 58 72 74 75 86 97 90 99 98 94 83 76 68 65 60 52 35 33 41 51 64 54 53 44 49 58
59 49 37 26 21 25 30 51 66 61 40 78 74 64 71 78 79 87 98 100 95 100 100 94 91 91 87 78 73 68 64 55 48 42 40 48 61 61 63 58 60 69 62
61 53 45 48 39 36 49 60 70 75 52 46 59 67 84 92 96 96 99 97 98 99 97 99 98 90 85 78 71 62 54 51 46 70 66 78 79 64 67 70 70 71 70
60 60 60 62 58 55 57 61 69 79 80 69 59 63 90 79 90 97 99 87 84 87 81 78 72 72 76 79 67 68 85 96 98 97 95 95 97 92 90 76 75 83 80
53 55 58 58 59 59 57 59 72 85 99 100 99 90 89 79 71 83 78 72 65 70 70 68 65 77 68 66 95 93 82 81 95 99 98 100 100 99 85 91 99 100 97
57 57 57 61 66 73 76 82 95 88 94 100 100 100 100 100 99 95 89 92 99 98 99 99 100 99 99 97 97 89 76 50 78 99 100 100 100 99 100 98 100 99 100
52 54 55 66 83 79 79 74 70 46 43 42 48 59 68 45 43 62 76 91 92 93 97 96 78 41 39 34 34 32 28 21 18 24 77 99 99 99 99 99 100 99 97
37 33 38 50 53 51 44 41 41 37 32 28 24 22 21 20 20 20 20 21 22 20 19 18 16 14 13 12 12 12 12 12 12 11 11 17 66 98 99 99 99 99 99
32 34 38 38 39 38 41 42 43 39 30 24 22 21 21 20 19 17 15 13 12 12 12 12 13 14 14 14 13 13 12 11 10 9 10 11 12 11 10 16 39 98 99
35 38 39 42 41 46 50 49 41 34 30 26 23 21 19 16 14 14 14 14 15 15 15 15 14 14 13 12 11 9 7 6 5 4 4 4 4 5 8 11 12 12 23
36 38 42 41 43 47 48 45 38 29 23 21 20 17 15 14 14 14 15 16 16 16 16 15 15 14 13 12 10 7 7 8 9 8 7 6 5 5 4 4 4 6 10
33 35 35 32 29 39 43 34 28 26 26 26 23 21 19 17 16 17 17 17 17 17 16 16 14 13 13 14 18 21 25 24 19 13 11 9 8 7 6 5 4 4 4
31 34 33 26 26 31 38 36 33 32 28 26 24 20 17 17 19 22 24 22 20 20 29 36 38 36 32 31 30 28 24 19 16 15 10 9 8 8 8 7 6 6 5
25 31 28 29 39 40 41 38 29 27 28 25 22 19 18 21 26 26 24 22 28 41 44 39 38 37 32 25 16 11 10 9 9 8 8 8 8 8 8 8 8 8 8
17 19 20 26 31 32 30 27 25 25 26 22 20 18 25 32 29 26 25 37 44 43 42 41 29 15 11 10 9 9 8 8 9 8 8 8 8 8 8 8 8 8 10
11 13 18 21 23 26 28 27 26 26 24 22 19 27 34 31 31 34 44 48 45 45 29 15 12 10 10 9 10 9 8 7 7 8 10 10 10 12 13 15 13 10 11
19 17 17 20 22 24 26 25 26 28 24 20 27 35 33 34 38 45 46 46 44 24 14 11 10 10 12 12 10 10 10 10 9 8 8 9 12 15 20 28 30 22 16
16 19 21 22 23 24 24 25 26 25 22 24 35 35 34 38 41 44 46 45 25 14 11 10 12 14 15 18 20 22 22 17 13 11 12 15 15 15 20 27 34 46 44
19 22 25 27 29 29 29 30 26 21 21 36 37 35 35 35 40 46 45 28 16 12 11 12 16 22 26 30 32 34 32 23 17 19 24 26 24 24 25 28 36 46 63
26 26 27 28 30 30 29 25 22 20 35 40 37 36 35 38 44 45 32 17 12 11 11 16 19 25 34 39 42 43 38 29 25 28 36 39 40 41 40 41 50 58 63
36 32 30 30 29 28 26 21 20 25 44 41 37 35 36 40 45 38 20 13 12 11 15 20 24 32 43 48 48 45 40 30 25 31 41 43 44 48 52 56 63 71 77
40 38 34 32 32 28 24 21 21 37 46 41 37 37 38 42 44 28 15 13 12 13 20 26 32 38 46 49 49 50 46 39 37 39 47 53 54 53 54 58 68 75 79
33 34 31 32 29 25 22 21 23 44 49 42 40 39 41 43 40 21 14 14 13 19 29 32 42 51 55 56 56 55 54 49 50 51 57 60 63 63 63 65 70 82 87